Location: Cantaing
(50.1487°N, 3.1675°E)
Time: 20:44:34
(UTC+00:00)

Nadezhda 3 Rocket - Pass Details

Date: 14 January 2026
Orbit: 956 x 998 km, 82.9° (Epoch: 13 February)

Event Time Altitude Azimuth Distance (km) Brightness Sun altitude
Rises 05:30:18 0° 350° (N) 3,670 6.8 -20.3°
Reaches altitude 10° 05:32:49 10° 351° (N) 2,724 6.2 -19.9°
Maximum altitude 05:39:04 83° 79° (E) 991 4.0 -18.9°
Drops below altitude 10° 05:45:22 10° 169° (S) 2,735 6.6 -17.9°
Sets 05:47:53 0° 170° (S) 3,684 7.3 -17.5°
